Weather in Spassk-Dalniy

Russia / Primorsky Krai     44°35′51″N   132°49′03″E
temp.,
°C
wind,
m/s
gust,
m/s
humid.,
%
clouds,
%
prec.,
mm/h
press.,
hPa
HPBL,
m
19 june, sat
sat1901:00+12ssw229534 0.1 100117
04:00+11sse1194100 0.1 100115
07:00+13s249338 0.0 1002118
10:00+18s247583 0.0 1002760
13:00+20sse336760 0.6 10001191
16:00+21e346721 2.4 10001138
19:00+19se48725 0.4 999391
22:00+13sse348036 0.4 100159
20 june, sun
sun2001:00+13se347796 0.1 1002100
04:00+13sse237596 0.1 100164
07:00+13ese2381100 0.0 100299
10:00+14s1280100 0.1 1003171
13:00+14ene2386100 0.1 1003217
16:00+12e2495100 1.0 1003253
19:00+12e2396100 0.8 1004121
22:00+11ese1295100 0.9 100530
21 june, mon
mon2101:00+11sse0195100 0.2 100612
04:00+11ene1195100 0.3 100622
07:00+11ne1195100 0.0 100767
10:00+12se118973 0.1 1007339
13:00+15ese2376100 0.1 1007747
16:00+14e2277100 0.1 1008426
19:00+12se1285100 0.0 1008113
22:00+11sse1285100 0.1 101033
22 june, tue
tue2201:00+11sse1184100 0.0 101023
04:00+11sse118236 0.0 101010
07:00+11s11845 0.0 101159
10:00+16wnw21722 0.0 1011538
13:00+19nnw326510 0.0 1011977
16:00+21nnw33650 0.0 1010979
19:00+20nw22785 0.0 1010362
22:00+14ssw00880 0.0 101111
23 june, wed
wed2301:00+13s22910 0.0 101211
04:00+12ssw22920 0.0 101218
07:00+14s22895 0.0 101381
10:00+19sw22715 0.0 1012463
13:00+23wnw216180 0.0 1012910
16:00+24wnw1156100 0.0 10101018
19:00+23n22764 0.0 1010194
22:00+17ssw22865 0.0 101221